Back to catalog

OPS 4682 DEB

AlivePO
NORAD 18670·DEBRIS·🇺🇸 United States

Launched Apr 3, 1965 from Vandenberg Space Force Base

Loading…

Next Passes (next 24 hours)

TLE

FreshSource: Space-Track

Epoch: Sep 14, 2026, 05:38 UTC

1 18670U 65027AG  26257.23514454 -.00000120  00000-0 -43787-3 0  9999
2 18670  90.2427 358.2437 0023726 258.6105 101.2351 12.97297642674310

Track OPS 4682 DEB in real time with AllMySat

Download on the App Store